Location: Il Ritiro
(43.4167°N, 13.1333°E)
Time: 08:13:39
(UTC+00:00)

Cosmos 1500 Rocket - Pass Details

Date: 05 July 2020
Orbit: 602 x 632 km, 82.5° (Epoch: 05 August)

Event Time Altitude Azimuth Distance (km) Brightness Sun altitude
Exits shadow 23:44:48 59° 266° (W) 721 3.7 -23.5°
Maximum altitude 23:45:00 60° 280° (W) 715 3.8 -23.5°
Drops below altitude 10° 23:49:22 10° 1° (N) 1,991 7.2 -23.4°
Sets 23:51:37 0° 5° (N) 2,896 8.5 -23.3°
